User: anonymous   Login
Location: Lac de la Montange Noire
(46.1952°N, 74.2701°W)
Time: 08:57:34
(UTC-04:00)
Language:

Iridium 42 - Orbit

View from above orbital plane
View from above orbital plane
View from above satellite
View from above satellite

Ground track
Ground track

The orbit data is extracted from the following two-line orbital elements,

1 25077U 97077A   14301.95085653  .00000407  00000-0  13829-3 0   124
2 25077 086.3977 064.1953 0002224 111.0821 249.0613 14.34257868884255
Epoch (UTC): 28 October 2014 22:49:14
Eccentricity: 0.0002224
inclination: 86.3977°
perigee height: 776 km
apogee height: 779 km
right ascension of ascending node: 64.1953°
argument of perigee: 111.0821°
revolutions per day: 14.34257868
mean anomaly at epoch: 249.0613°
orbit number at epoch: 88425

The dashed part of the orbit path shows where the satellite is in the earth's shadow,  

DLR